Tracking 19827 objects as of 21-Aug-2019
HD Live streaming from Space Station
objects crossing your sky now

TRANSIT 16 DEB


TRANSIT 16 DEB is no longer on orbit


NORAD ID: 26531
Int'l Code: 1967-048F
Perigee: N/A
Apogee: N/A
Inclination: N/A
Period: N/A
Semi major axis: N/A
RCS: N/A
Launch date: May 18, 1967
Source: United States (US)
Launch site: AIR FORCE WESTERN TEST RANGE (AFWTR)
Decay date: 2012-01-20

Note: This is SATELLITE DEBRIS
aabbcc
Your satellite tracking list
Your tracking list is empty




NASA's NSSDC Master Catalog

Two Line Element Set (TLE):
1 26531U 67048F   12019.37048420  .07513221  00000-0  52510-1 0  9998
2 26531 089.5663 149.6217 0030499 331.2326 028.7470 15.73586734227414
Source of the keplerian elements: AFSPC